KZR991 UAAA-UACC

Flight info

Callsign KZR991
Flight time 1h 26m
Altitude 38000
Route ETEDA1B ETEDA W333 BANOS BANOS1D
Aircraft A321/M-SDE3FGHIRWY/LB1

Departure

Time 2026-04-24 09:00
Airport Almaty International Airport (UAAA)

Arrival

Time 2026-04-24 10:26
Airport Nursultan Nazarbayev International Airport (UACC)
Time Latitude Longitude Altitude Speed Heading
2026-04-24 08:42 43.34682 77.01309 2229 ft 0 kts 246°
2026-04-24 08:53 43.34685 77.01319 2229 ft 2 kts 245°
2026-04-24 08:53 43.34691 77.01340 2224 ft 2 kts 250°
2026-04-24 08:53 43.34697 77.01362 2224 ft 2 kts 255°
2026-04-24 08:54 43.34700 77.01384 2226 ft 2 kts 263°
2026-04-24 08:54 43.34701 77.01407 2225 ft 2 kts 285°
2026-04-24 08:54 43.34694 77.01427 2225 ft 2 kts 326°
2026-04-24 08:54 43.34685 77.01435 2224 ft 1 kts 336°
2026-04-24 08:55 43.34684 77.01435 2224 ft 0 kts 336°
2026-04-24 08:55 43.34718 77.01414 2226 ft 9 kts 335°
2026-04-24 08:56 43.34782 77.01405 2229 ft 10 kts 34°
2026-04-24 08:56 43.34817 77.01516 2226 ft 16 kts 88°
2026-04-24 08:56 43.34811 77.01690 2226 ft 22 kts 93°
2026-04-24 08:56 43.34801 77.01927 2225 ft 27 kts 94°
2026-04-24 08:57 43.34788 77.02186 2228 ft 32 kts 94°
2026-04-24 08:57 43.34773 77.02512 2228 ft 36 kts 94°
2026-04-24 08:57 43.34781 77.02830 2228 ft 33 kts 87°
2026-04-24 08:57 43.34815 77.03129 2228 ft 26 kts 68°
2026-04-24 08:58 43.34831 77.03171 2225 ft 0 kts 53°
2026-04-24 08:59 43.34833 77.03175 2225 ft 0 kts 53°
2026-04-24 08:59 43.34844 77.03196 2226 ft 21 kts 57°
2026-04-24 08:59 43.35076 77.03665 2227 ft 95 kts 56°
2026-04-24 08:59 43.35572 77.04660 2227 ft 154 kts 55°
2026-04-24 09:00 43.36211 77.05980 2735 ft 165 kts 55°
2026-04-24 09:00 43.36862 77.07280 3520 ft 165 kts 52°
2026-04-24 09:00 43.37540 77.08575 4185 ft 173 kts 53°
2026-04-24 09:00 43.38297 77.10011 4563 ft 193 kts 53°
2026-04-24 09:01 43.39132 77.11598 4804 ft 216 kts 54°
2026-04-24 09:01 43.39732 77.12744 4951 ft 231 kts 54°
2026-04-24 09:01 43.40722 77.14637 5251 ft 254 kts 54°
2026-04-24 09:01 43.41998 77.16433 5716 ft 269 kts 28°
2026-04-24 09:02 43.43831 77.16998 6346 ft 276 kts 353°
2026-04-24 09:02 43.45682 77.16263 7049 ft 279 kts 334°
2026-04-24 09:02 43.47402 77.15029 7797 ft 280 kts 329°
2026-04-24 09:02 43.49109 77.13690 8555 ft 283 kts 329°
2026-04-24 09:03 43.50859 77.12381 8924 ft 287 kts 328°
2026-04-24 09:03 43.52421 77.10709 8992 ft 284 kts 311°
2026-04-24 09:03 43.53562 77.08515 9019 ft 283 kts 295°
2026-04-24 09:03 43.54184 77.05949 9683 ft 283 kts 278°
2026-04-24 09:04 43.54360 77.03238 10310 ft 291 kts 273°
2026-04-24 09:04 43.54489 77.00352 10486 ft 313 kts 273°
2026-04-24 09:04 43.54853 76.97332 10890 ft 325 kts 285°
2026-04-24 09:04 43.55725 76.94431 11526 ft 330 kts 297°
2026-04-24 09:05 43.57068 76.91854 12224 ft 334 kts 310°
2026-04-24 09:05 43.58688 76.89543 12929 ft 336 kts 311°
2026-04-24 09:05 43.60323 76.87223 13641 ft 337 kts 311°
2026-04-24 09:05 43.61959 76.84890 14276 ft 339 kts 310°
2026-04-24 09:06 43.63605 76.82538 14869 ft 342 kts 310°
2026-04-24 09:06 43.65264 76.80158 15450 ft 345 kts 310°
2026-04-24 09:06 43.66938 76.77756 16030 ft 348 kts 310°
2026-04-24 09:06 43.68625 76.75336 16611 ft 351 kts 309°
2026-04-24 09:07 43.70328 76.72894 17182 ft 354 kts 309°
2026-04-24 09:07 43.72046 76.70429 17751 ft 358 kts 309°
2026-04-24 09:07 43.75523 76.65419 18786 ft 363 kts 308°
2026-04-24 09:08 43.77218 76.62877 19265 ft 366 kts 307°
2026-04-24 09:08 43.78949 76.60223 19763 ft 368 kts 307°
2026-04-24 09:08 43.80639 76.57605 20246 ft 371 kts 307°
2026-04-24 09:08 43.82362 76.54932 20724 ft 373 kts 307°
2026-04-24 09:09 43.84107 76.52249 21194 ft 377 kts 308°
2026-04-24 09:09 43.86156 76.49908 21629 ft 389 kts 323°
2026-04-24 09:09 43.88660 76.48353 22074 ft 402 kts 339°
2026-04-24 09:09 43.91469 76.47774 22506 ft 416 kts 355°
2026-04-24 09:10 43.94375 76.48314 22921 ft 429 kts 12°
2026-04-24 09:10 43.97195 76.49774 23328 ft 435 kts 18°
2026-04-24 09:10 44.00014 76.51343 23728 ft 438 kts 18°
2026-04-24 09:10 44.02850 76.52933 24080 ft 441 kts 18°
2026-04-24 09:11 44.05705 76.54541 24440 ft 444 kts 18°
2026-04-24 09:11 44.08576 76.56156 24800 ft 446 kts 18°
2026-04-24 09:11 44.11495 76.57611 25155 ft 445 kts 11°
2026-04-24 09:11 44.14526 76.58426 25509 ft 442 kts
2026-04-24 09:12 44.17583 76.58554 25862 ft 438 kts 351°
2026-04-24 09:12 44.20589 76.58009 26208 ft 434 kts 342°
2026-04-24 09:12 44.23524 76.57020 26552 ft 435 kts 340°
2026-04-24 09:12 44.26468 76.56020 26914 ft 437 kts 340°
2026-04-24 09:13 44.29434 76.55018 27255 ft 440 kts 341°
2026-04-24 09:13 44.32418 76.54014 27614 ft 442 kts 340°
2026-04-24 09:13 44.35328 76.52723 27936 ft 438 kts 332°
2026-04-24 09:13 44.38145 76.51085 28280 ft 439 kts 332°
2026-04-24 09:14 44.40969 76.49435 28619 ft 441 kts 331°
2026-04-24 09:14 44.43812 76.47773 28969 ft 443 kts 331°
2026-04-24 09:14 44.46663 76.46106 29310 ft 446 kts 331°
2026-04-24 09:14 44.49533 76.44426 29639 ft 448 kts 331°
2026-04-24 09:15 44.52411 76.42743 29967 ft 450 kts 331°
2026-04-24 09:15 44.55308 76.41046 30262 ft 452 kts 331°
2026-04-24 09:15 44.58214 76.39344 30527 ft 454 kts 332°
2026-04-24 09:15 44.61136 76.37630 30782 ft 455 kts 331°
2026-04-24 09:16 44.64061 76.35910 31032 ft 457 kts 332°
2026-04-24 09:16 44.66997 76.34179 31278 ft 458 kts 332°
2026-04-24 09:16 44.69942 76.32439 31511 ft 460 kts 331°
2026-04-24 09:16 44.72893 76.30691 31757 ft 461 kts 332°
2026-04-24 09:17 44.75844 76.28945 32078 ft 460 kts 332°
2026-04-24 09:17 44.78789 76.27205 32407 ft 459 kts 332°
2026-04-24 09:17 44.81730 76.25468 32726 ft 458 kts 332°
2026-04-24 09:17 44.84662 76.23732 33039 ft 457 kts 331°
2026-04-24 09:18 44.87588 76.21993 33350 ft 456 kts 332°
2026-04-24 09:18 44.90505 76.20258 33654 ft 455 kts 331°
2026-04-24 09:18 44.93418 76.18526 33974 ft 454 kts 331°
2026-04-24 09:18 44.96320 76.16797 34255 ft 453 kts 331°
2026-04-24 09:19 44.99238 76.15053 34498 ft 452 kts 331°
2026-04-24 09:19 45.02131 76.13324 34728 ft 452 kts 331°
2026-04-24 09:19 45.05033 76.11590 34952 ft 452 kts 331°
2026-04-24 09:19 45.07930 76.09854 35194 ft 452 kts 331°
2026-04-24 09:20 45.10830 76.08117 35413 ft 452 kts 331°
2026-04-24 09:20 45.13730 76.06381 35639 ft 452 kts 331°
2026-04-24 09:20 45.16630 76.04645 35873 ft 452 kts 331°
2026-04-24 09:20 45.19523 76.02907 36092 ft 452 kts 331°
2026-04-24 09:21 45.22419 76.01161 36310 ft 452 kts 331°
2026-04-24 09:21 45.25313 75.99415 36520 ft 452 kts 331°
2026-04-24 09:21 45.28211 75.97666 36726 ft 452 kts 331°
2026-04-24 09:21 45.31105 75.95915 36928 ft 452 kts 331°
2026-04-24 09:22 45.33995 75.94163 37116 ft 452 kts 331°
2026-04-24 09:22 45.36886 75.92413 37302 ft 452 kts 331°
2026-04-24 09:22 45.39777 75.90666 37473 ft 451 kts 331°
2026-04-24 09:22 45.42674 75.88917 37667 ft 451 kts 331°
2026-04-24 09:23 45.45563 75.87168 37826 ft 451 kts 331°
2026-04-24 09:23 45.48446 75.85413 38013 ft 450 kts 331°
2026-04-24 09:23 45.54219 75.81894 38094 ft 451 kts 331°
2026-04-24 09:24 45.59987 75.78371 38092 ft 451 kts 331°
2026-04-24 09:24 45.65762 75.74851 38096 ft 451 kts 331°
2026-04-24 09:25 45.71532 75.71319 38092 ft 451 kts 331°
2026-04-24 09:25 45.77293 75.67776 38108 ft 451 kts 331°
2026-04-24 09:26 45.83061 75.64212 38106 ft 452 kts 331°
2026-04-24 09:26 45.88838 75.60656 38110 ft 452 kts 331°
2026-04-24 09:27 45.94618 75.57097 38117 ft 452 kts 331°
2026-04-24 09:27 46.00371 75.53538 38114 ft 452 kts 331°
2026-04-24 09:28 46.06147 75.49946 38112 ft 452 kts 331°
2026-04-24 09:28 46.11919 75.46353 38112 ft 452 kts 331°
2026-04-24 09:29 46.17690 75.42752 38116 ft 452 kts 331°
2026-04-24 09:29 46.23472 75.39131 38116 ft 452 kts 331°
2026-04-24 09:30 46.29256 75.35528 38117 ft 453 kts 331°
2026-04-24 09:30 46.35055 75.31929 38114 ft 453 kts 331°
2026-04-24 09:31 46.40851 75.28324 38119 ft 453 kts 331°
2026-04-24 09:31 46.46651 75.24704 38121 ft 454 kts 331°
2026-04-24 09:32 46.52488 75.21036 38125 ft 454 kts 331°
2026-04-24 09:32 46.58290 75.17389 38126 ft 454 kts 331°
2026-04-24 09:33 46.64089 75.13744 38124 ft 454 kts 331°
2026-04-24 09:33 46.69892 75.10089 38137 ft 454 kts 331°
2026-04-24 09:34 46.75719 75.06387 38138 ft 454 kts 331°
2026-04-24 09:34 46.81468 75.02729 38138 ft 454 kts 331°
2026-04-24 09:35 46.87254 74.99048 38142 ft 454 kts 331°
2026-04-24 09:35 46.93111 74.95544 38143 ft 456 kts 334°
2026-04-24 09:36 46.99077 74.92350 38137 ft 457 kts 335°
2026-04-24 09:36 47.04081 74.89697 38136 ft 456 kts 335°
2026-04-24 09:37 47.10033 74.86449 38125 ft 456 kts 334°
2026-04-24 09:37 47.15974 74.83134 38107 ft 456 kts 334°
2026-04-24 09:38 47.21865 74.79836 38110 ft 456 kts 334°
2026-04-24 09:38 47.27805 74.76524 38104 ft 456 kts 334°
2026-04-24 09:39 47.33747 74.73218 38114 ft 456 kts 334°
2026-04-24 09:39 47.39687 74.69897 38112 ft 456 kts 334°
2026-04-24 09:40 47.45620 74.66563 38111 ft 456 kts 334°
2026-04-24 09:40 47.51555 74.63222 38114 ft 456 kts 334°
2026-04-24 09:41 47.57491 74.59882 38113 ft 456 kts 334°
2026-04-24 09:41 47.63436 74.56559 38107 ft 456 kts 334°
2026-04-24 09:42 47.69379 74.53238 38106 ft 456 kts 334°
2026-04-24 09:42 47.75306 74.49891 38109 ft 456 kts 334°
2026-04-24 09:43 47.81198 74.46551 38106 ft 456 kts 334°
2026-04-24 09:43 47.87134 74.43198 38107 ft 456 kts 334°
2026-04-24 09:44 47.93061 74.39838 38105 ft 456 kts 334°
2026-04-24 09:44 47.98993 74.36457 38106 ft 456 kts 334°
2026-04-24 09:45 48.04919 74.33069 38106 ft 456 kts 334°
2026-04-24 09:45 48.10845 74.29683 38109 ft 456 kts 334°
2026-04-24 09:46 48.16778 74.26284 38105 ft 456 kts 334°
2026-04-24 09:46 48.22723 74.22925 38106 ft 457 kts 334°
2026-04-24 09:47 48.28678 74.19581 38107 ft 457 kts 334°
2026-04-24 09:47 48.34630 74.16203 38107 ft 457 kts 334°
2026-04-24 09:48 48.40570 74.12811 38112 ft 457 kts 334°
2026-04-24 09:48 48.46512 74.09413 38110 ft 457 kts 334°
2026-04-24 09:49 48.52452 74.06001 38113 ft 457 kts 334°
2026-04-24 09:49 48.58389 74.02580 38107 ft 456 kts 334°
2026-04-24 09:50 48.64324 73.99166 38111 ft 456 kts 334°
2026-04-24 09:50 48.70256 73.95742 38108 ft 456 kts 334°
2026-04-24 09:51 48.76183 73.92311 38110 ft 456 kts 334°
2026-04-24 09:51 48.82117 73.88868 38102 ft 456 kts 334°
2026-04-24 09:52 48.88033 73.85420 38113 ft 455 kts 334°
2026-04-24 09:52 48.93956 73.81961 38109 ft 455 kts 334°
2026-04-24 09:53 48.99863 73.78504 38099 ft 455 kts 334°
2026-04-24 09:53 49.05775 73.75040 38099 ft 455 kts 334°
2026-04-24 09:54 49.11673 73.71559 38099 ft 454 kts 334°
2026-04-24 09:54 49.17529 73.68084 38098 ft 454 kts 334°
2026-04-24 09:55 49.23422 73.64585 38096 ft 454 kts 334°
2026-04-24 09:55 49.29325 73.61069 37924 ft 460 kts 334°
2026-04-24 09:56 49.32330 73.59273 37654 ft 465 kts 334°
2026-04-24 09:56 49.35340 73.57476 37391 ft 464 kts 334°
2026-04-24 09:56 49.38343 73.55680 37123 ft 462 kts 334°
2026-04-24 09:56 49.41332 73.53890 36865 ft 459 kts 334°
2026-04-24 09:57 49.44342 73.52088 36607 ft 457 kts 335°
2026-04-24 09:57 49.47296 73.50320 36351 ft 454 kts 335°
2026-04-24 09:57 49.50232 73.48560 36107 ft 451 kts 335°
2026-04-24 09:57 49.53144 73.46810 35859 ft 448 kts 335°
2026-04-24 09:58 49.56042 73.45063 35615 ft 446 kts 335°
2026-04-24 09:58 49.58919 73.43325 35375 ft 443 kts 335°
2026-04-24 09:58 49.61783 73.41591 35134 ft 440 kts 335°
2026-04-24 09:58 49.64625 73.39869 34894 ft 438 kts 335°
2026-04-24 09:59 49.67384 73.37950 34650 ft 432 kts 328°
2026-04-24 09:59 49.69895 73.35468 34404 ft 426 kts 319°
2026-04-24 09:59 49.72127 73.32497 34181 ft 422 kts 314°
2026-04-24 09:59 49.74264 73.29409 33925 ft 420 kts 314°
2026-04-24 10:00 49.76395 73.26343 33650 ft 417 kts 314°
2026-04-24 10:00 49.78506 73.23312 33241 ft 411 kts 314°
2026-04-24 10:00 49.80588 73.20322 32799 ft 406 kts 314°
2026-04-24 10:00 49.82641 73.17363 32346 ft 401 kts 314°
2026-04-24 10:01 49.84671 73.14431 31906 ft 397 kts 314°
2026-04-24 10:01 49.86680 73.11522 31476 ft 393 kts 314°
2026-04-24 10:01 49.88666 73.08638 31034 ft 390 kts 314°
2026-04-24 10:01 49.90632 73.05782 30610 ft 386 kts 314°
2026-04-24 10:02 49.92584 73.02944 30184 ft 383 kts 314°
2026-04-24 10:02 49.94521 73.00129 29730 ft 379 kts 314°
2026-04-24 10:02 49.96438 72.97343 29327 ft 375 kts 314°
2026-04-24 10:02 49.98324 72.94592 28926 ft 370 kts 314°
2026-04-24 10:03 50.00188 72.91871 28545 ft 365 kts 314°
2026-04-24 10:03 50.02024 72.89186 28169 ft 361 kts 314°
2026-04-24 10:03 50.03849 72.86516 27799 ft 359 kts 314°
2026-04-24 10:03 50.05659 72.83862 27439 ft 357 kts 314°
2026-04-24 10:04 50.07461 72.81218 27080 ft 355 kts 314°
2026-04-24 10:04 50.09226 72.78627 26724 ft 352 kts 314°
2026-04-24 10:04 50.11005 72.76011 26368 ft 350 kts 314°
2026-04-24 10:04 50.12771 72.73412 26020 ft 348 kts 314°
2026-04-24 10:05 50.14525 72.70828 25653 ft 346 kts 314°
2026-04-24 10:05 50.16271 72.68251 25292 ft 344 kts 314°
2026-04-24 10:05 50.18027 72.65729 24929 ft 342 kts 318°
2026-04-24 10:05 50.19986 72.63615 24529 ft 343 kts 328°
2026-04-24 10:06 50.22112 72.61929 24152 ft 341 kts 331°
2026-04-24 10:06 50.26337 72.58620 23325 ft 337 kts 330°
2026-04-24 10:06 50.28420 72.56974 22923 ft 334 kts 330°
2026-04-24 10:07 50.30485 72.55336 22521 ft 332 kts 330°
2026-04-24 10:07 50.32541 72.53703 22143 ft 330 kts 330°
2026-04-24 10:07 50.34584 72.52082 21730 ft 328 kts 330°
2026-04-24 10:07 50.36613 72.50474 21337 ft 326 kts 330°
2026-04-24 10:08 50.38631 72.48874 20944 ft 324 kts 330°
2026-04-24 10:08 50.40639 72.47278 20549 ft 322 kts 330°
2026-04-24 10:08 50.42631 72.45693 20158 ft 321 kts 330°
2026-04-24 10:08 50.44616 72.44112 19769 ft 319 kts 330°
2026-04-24 10:09 50.46567 72.42558 19388 ft 317 kts 329°
2026-04-24 10:09 50.48532 72.40992 19005 ft 316 kts 329°
2026-04-24 10:09 50.50486 72.39430 18618 ft 314 kts 329°
2026-04-24 10:09 50.52430 72.37874 18221 ft 313 kts 329°
2026-04-24 10:10 50.54361 72.36324 17812 ft 311 kts 329°
2026-04-24 10:10 50.56279 72.34788 17433 ft 308 kts 329°
2026-04-24 10:10 50.58185 72.33265 17043 ft 306 kts 329°
2026-04-24 10:10 50.60088 72.31741 16663 ft 314 kts 329°
2026-04-24 10:11 50.62071 72.30143 16269 ft 323 kts 329°
2026-04-24 10:11 50.64077 72.28529 15861 ft 324 kts 329°
2026-04-24 10:11 50.66076 72.26925 15456 ft 322 kts 329°
2026-04-24 10:11 50.68067 72.25325 15064 ft 320 kts 329°
2026-04-24 10:12 50.70039 72.23736 14667 ft 317 kts 329°
2026-04-24 10:12 50.71998 72.22155 14274 ft 315 kts 329°
2026-04-24 10:12 50.73947 72.20584 13871 ft 313 kts 329°
2026-04-24 10:12 50.75886 72.19019 13371 ft 312 kts 328°
2026-04-24 10:13 50.77812 72.17459 12920 ft 310 kts 328°
2026-04-24 10:13 50.79725 72.15908 12467 ft 308 kts 328°
2026-04-24 10:13 50.81625 72.14367 12031 ft 306 kts 328°
2026-04-24 10:13 50.83518 72.12830 11592 ft 305 kts 328°
2026-04-24 10:14 50.85402 72.11298 11149 ft 304 kts 328°
2026-04-24 10:14 50.87276 72.09772 10716 ft 303 kts 328°
2026-04-24 10:14 50.89143 72.08252 10352 ft 299 kts 328°
2026-04-24 10:14 50.90980 72.06760 10109 ft 293 kts 328°
2026-04-24 10:15 50.92787 72.05295 9882 ft 291 kts 328°
2026-04-24 10:15 50.94586 72.03832 9758 ft 291 kts 328°
2026-04-24 10:15 50.95775 72.02864 9741 ft 290 kts 328°
2026-04-24 10:15 50.97572 72.01397 9535 ft 290 kts 328°
2026-04-24 10:16 50.99361 71.99932 9229 ft 288 kts 328°
2026-04-24 10:16 51.01138 71.98475 8916 ft 286 kts 328°
2026-04-24 10:16 51.02902 71.97030 8595 ft 284 kts 328°
2026-04-24 10:16 51.04651 71.95601 8282 ft 282 kts 328°
2026-04-24 10:17 51.06385 71.94183 7992 ft 280 kts 329°
2026-04-24 10:17 51.08115 71.92764 7736 ft 279 kts 329°
2026-04-24 10:17 51.09830 71.91359 7466 ft 273 kts 329°
2026-04-24 10:17 51.11486 71.90003 7205 ft 263 kts 329°
2026-04-24 10:18 51.13087 71.88690 6962 ft 255 kts 328°
2026-04-24 10:18 51.14531 71.87196 6725 ft 242 kts 316°
2026-04-24 10:18 51.15723 71.85354 6485 ft 237 kts 310°
2026-04-24 10:18 51.16865 71.83510 6248 ft 230 kts 311°
2026-04-24 10:19 51.17972 71.81737 6002 ft 222 kts 311°
2026-04-24 10:19 51.18889 71.79869 5768 ft 209 kts 295°
2026-04-24 10:19 51.19359 71.77748 5581 ft 199 kts 277°
2026-04-24 10:19 51.19394 71.75622 5371 ft 186 kts 262°
2026-04-24 10:20 51.19056 71.73676 5127 ft 179 kts 246°
2026-04-24 10:20 51.18412 71.72030 4932 ft 172 kts 232°
2026-04-24 10:20 51.17584 71.70693 4748 ft 167 kts 227°
2026-04-24 10:20 51.16778 71.69415 4579 ft 159 kts 227°
2026-04-24 10:21 51.16021 71.68221 4416 ft 148 kts 227°
2026-04-24 10:21 51.15319 71.67113 4342 ft 143 kts 226°
2026-04-24 10:21 51.14602 71.65982 4264 ft 141 kts 227°
2026-04-24 10:21 51.13906 71.64885 4105 ft 141 kts 228°
2026-04-24 10:22 51.13219 71.63804 3923 ft 141 kts 228°
2026-04-24 10:22 51.12524 71.62712 3747 ft 140 kts 227°
2026-04-24 10:22 51.11830 71.61621 3563 ft 139 kts 228°
2026-04-24 10:22 51.11140 71.60537 3391 ft 138 kts 227°
2026-04-24 10:23 51.10455 71.59462 3199 ft 137 kts 227°
2026-04-24 10:23 51.09773 71.58391 3026 ft 139 kts 227°
2026-04-24 10:23 51.09085 71.57311 2842 ft 138 kts 227°
2026-04-24 10:23 51.08403 71.56243 2647 ft 137 kts 227°
2026-04-24 10:24 51.07725 71.55179 2472 ft 136 kts 227°
2026-04-24 10:24 51.07050 71.54122 2286 ft 136 kts 227°
2026-04-24 10:24 51.06377 71.53068 2082 ft 135 kts 228°
2026-04-24 10:24 51.05703 71.52013 1881 ft 138 kts 227°
2026-04-24 10:25 51.05012 71.50931 1685 ft 138 kts 226°
2026-04-24 10:25 51.04338 71.49876 1480 ft 138 kts 225°
2026-04-24 10:25 51.03648 71.48791 1290 ft 137 kts 224°
2026-04-24 10:25 51.02982 71.47760 1194 ft 134 kts 224°
2026-04-24 10:26 51.02367 71.46809 1167 ft 86 kts 225°
2026-04-24 10:26 51.02054 71.46303 1165 ft 57 kts 225°
2026-04-24 10:26 51.01781 71.45878 1163 ft 54 kts 225°
2026-04-24 10:26 51.01698 71.45666 1163 ft 11 kts 296°
2026-04-24 10:27 51.01764 71.45546 1163 ft 17 kts 315°
2026-04-24 10:27 51.01846 71.45522 1164 ft 15 kts 32°
2026-04-24 10:27 51.01933 71.45652 1164 ft 20 kts 44°
2026-04-24 10:27 51.02042 71.45823 1164 ft 25 kts 45°
2026-04-24 10:28 51.02176 71.46033 1164 ft 29 kts 44°
2026-04-24 10:28 51.02306 71.46225 1164 ft 9 kts 25°
2026-04-24 10:28 51.02379 71.46201 1164 ft 14 kts 333°
2026-04-24 10:28 51.02430 71.46103 1164 ft 1 kts 315°
2026-04-24 10:29 51.02449 71.46075 1164 ft 7 kts 317°
2026-04-24 10:29 51.02491 71.46012 1164 ft 11 kts 316°
2026-04-24 10:29 51.02558 71.45937 1164 ft 11 kts 355°
2026-04-24 10:29 51.02617 71.45985 1164 ft 10 kts 24°
2026-04-24 10:30 51.02625 71.45992 1164 ft 0 kts 26°